Slocum Royal Navy unit_544 on mission MASSMO 3 Piloting

  • Deployed: 2016/09/15 00:00:00 UTC (1127 days ago)
  • Recovered: 2016/10/01 19:00:00 UTC (1111 days ago)
  • Time at Sea: 16 days
  • Profiles Performed: 977

Near Real-Time Data

 
backscatter
cdom
chlorophyll
conductivity
density
salinity
sound_velocity
temperature

Communication Log

# Updated Depth Speed Plots
1084291 2016-10-01 18:06:10 UTC (1111 days ago)
1084288 2016-10-01 18:04:22 UTC (1111 days ago)
1084282 2016-10-01 17:58:18 UTC (1111 days ago)
1084275 2016-10-01 17:52:09 UTC (1111 days ago)
1084266 2016-10-01 17:45:54 UTC (1111 days ago)
1084258 2016-10-01 17:39:50 UTC (1111 days ago)
1084250 2016-10-01 17:33:40 UTC (1111 days ago)
1084240 2016-10-01 17:27:39 UTC (1111 days ago)
1084234 2016-10-01 17:21:34 UTC (1111 days ago)
1084227 2016-10-01 17:15:28 UTC (1111 days ago)
1084220 2016-10-01 17:09:22 UTC (1111 days ago)
1084214 2016-10-01 17:03:15 UTC (1111 days ago)
1084206 2016-10-01 16:57:06 UTC (1111 days ago)
1084200 2016-10-01 16:51:01 UTC (1111 days ago)
1084192 2016-10-01 16:43:47 UTC (1111 days ago)
1084184 2016-10-01 16:37:42 UTC (1111 days ago)
1084171 2016-10-01 16:24:34 UTC (1111 days ago)
1084164 2016-10-01 16:18:22 UTC (1111 days ago)
1084157 2016-10-01 16:12:11 UTC (1111 days ago)
1084151 2016-10-01 16:06:08 UTC (1111 days ago)